#timestamp,LO_Frequency,Hit 
1504839615.6,286047006.0,N
1504839635.5,286047000.4,N
1504839655.3,286046999.3,N
1504839675.1,286047002.0,N
1504839695.8,286047006.0,N
1504839715.7,286047004.0,N
1504839735.5,286047001.5,N
1504839755.3,286047001.9,N
1504839775.2,286047001.7,N
1504839795.9,286047000.8,N
1504839815.7,286047002.1,N
1504839835.6,286047003.0,N
1504839855.4,286047006.4,N
1504839875.2,286047007.4,N
1504839895.1,286047007.5,N
1504839896.0,286047007.5,N
1504839915.8,286047007.2,N
1504839935.6,286047001.3,N
1504839955.5,286047000.2,N
1504839975.3,286047003.1,N
1504839995.1,286047007.2,N
1504840015.8,286047006.9,N
1504840035.7,286047005.8,N
1504840055.5,286047003.1,N
1504840075.3,286047005.4,N
1504840095.2,286046996.6,N
1504840115.9,286046994.4,N
1504840135.7,286046991.5,N
1504840155.6,286046988.8,N
1504840175.4,286046987.4,N
1504840195.2,286046987.0,N
1504840215.1,286046987.0,N
1504840216.0,286046987.0,N
1504840235.8,286046984.7,N
1504840255.6,286046983.4,N
1504840275.5,286046983.0,N
1504840295.3,286046985.1,N
1504840315.1,286046982.6,N
1504840335.9,286046985.1,N
1504840355.7,286046983.5,N
1504840375.5,286046983.2,N
1504840395.3,286046980.5,N
1504840415.2,286046981.9,N
1504840435.0,286046980.1,N
1504840435.9,286046980.1,N
1504840455.7,286046978.3,N
1504840475.6,286046975.0,N
1504840495.4,286046975.5,N
1504840515.2,286046975.2,N
1504840535.1,286046971.9,N
1504840536.0,286046971.9,N
1504840555.8,286046972.2,N
1504840575.6,286046971.8,P
1504840595.5,286046986.4,N
1504840615.3,286046986.2,N
1504840635.1,286046984.5,N
1504840655.9,286046984.6,N
1504840675.7,286046982.2,P
1504840695.5,286046999.0,N
1504840715.4,286047000.3,N
1504840735.2,286046997.7,N
1504840755.0,286046998.5,N
1504840755.9,286046998.5,N
1504840775.8,286047004.1,N
1504840795.6,286047007.6,N
1504840815.4,286047008.4,N
1504840835.3,286047013.5,N
1504840855.1,286047014.4,N
1504840875.8,286047021.6,N
1504840895.7,286047022.6,N
1504840915.5,286047024.9,N
1504840935.3,286047025.0,N
1504840955.2,286047027.1,N
1504840975.9,286047028.9,N
1504840995.7,286047027.6,N
1504841015.8,286047031.3,N
1504841035.6,286047031.4,N
1504841055.4,286047028.5,N
1504841075.3,286047030.6,N
1504841095.1,286047030.6,N
1504841096.0,286047030.6,N
1504841115.8,286047030.1,N
1504841135.7,286047031.4,N
1504841155.5,286047029.1,N
1504841175.3,286047031.3,N
1504841195.1,286047030.5,N
1504841215.9,286047031.9,N
1504841235.7,286047034.5,N
1504841255.5,286047034.5,N
1504841275.4,286047035.7,N
1504841295.2,286047036.9,P
1504841315.0,286047015.7,N
1504841315.9,286047015.7,N
1504841335.8,286047015.3,N
1504841355.6,286047016.9,N
1504841375.4,286047017.5,N
1504841395.3,286047020.7,N
1504841415.1,286047017.5,N
1504841435.8,286047019.8,P
1504841455.7,286046997.3,P
1504841475.5,286046995.2,N
1504841495.3,286046994.6,N
1504841515.2,286046997.5,N
1504841535.9,286046993.7,N
1504841555.7,286046996.0,N
1504841575.6,286046997.3,N
1504841595.4,286046998.2,N
1504841615.2,286047001.2,N
1504841635.1,286047002.0,N
1504841636.0,286047002.0,N
1504841655.8,286046999.1,N
1504841675.6,286046998.5,N
1504841695.5,286046997.0,N
1504841715.3,286046997.4,N
1504841735.1,286046997.4,N
1504841755.8,286046997.0,N
1504841775.7,286046999.0,N
1504841795.5,286047000.5,N
1504841815.3,286047002.3,N
1504841835.2,286047003.9,N
1504841855.9,286047004.1,N
1504841875.7,286047003.4,N
1504841895.6,286046999.8,N
1504841915.4,286046998.3,N
1504841935.2,286046998.4,N
1504841955.1,286046997.7,N
1504841956.0,286046997.7,N
1504841975.8,286046998.1,N
1504841995.6,286047001.0,N
1504842015.5,286047002.2,N
1504842035.3,286047000.4,N
1504842055.1,286047002.0,N
1504842075.8,286047001.5,N
1504842095.7,286047000.1,N
1504842115.5,286046998.2,N
1504842135.3,286046997.0,N
1504842155.2,286046997.4,N
1504842175.9,286046997.0,N
1504842195.7,286046998.6,N
1504842215.6,286046998.3,N
1504842235.4,286046999.7,N
1504842255.2,286047004.3,N
1504842275.1,286047002.7,N
1504842276.0,286047002.7,N
1504842295.8,286047001.5,N
1504842315.6,286047001.7,N
1504842335.5,286047002.6,N
1504842355.3,286046998.3,N
1504842375.1,286046997.6,N
1504842395.9,286046992.0,P
1504842415.7,286046990.5,N
1504842435.5,286046990.1,N
1504842455.4,286046988.7,N
1504842475.2,286046987.7,P
1504842495.0,286046996.6,N
1504842495.9,286046996.6,N
1504842515.8,286046997.9,N
1504842535.6,286046990.3,N
1504842555.4,286046985.7,P
1504842575.3,286046990.3,N
1504842595.1,286046994.4,N
1504842596.0,286046994.4,N
1504842615.8,286046992.9,N
1504842635.7,286046986.9,P
1504842655.5,286046992.1,P
1504842675.3,286046991.3,P
1504842695.2,286046991.2,P
1504842715.0,286047000.2,N
1504842715.9,286047000.2,N
1504842735.7,286046996.9,N
1504842755.6,286046996.7,N
1504842775.4,286046997.0,N
1504842795.2,286046995.4,N
1504842815.1,286046995.5,N
1504842816.0,286046995.5,N
1504842835.8,286046995.0,N
1504842855.6,286046996.4,N
1504842875.5,286046993.4,N
1504842895.3,286046996.0,N
1504842915.1,286046994.1,N
1504842935.9,286046990.7,P
1504842955.7,286046993.7,N
1504842975.5,286046991.8,P
1504842995.4,286046992.4,P
1504843015.2,286046998.6,P
1504843035.0,286046997.9,N
1504843035.9,286046997.9,N
1504843055.8,286046994.8,N
1504843075.6,286047002.3,N
1504843095.4,286047006.6,N
1504843115.3,286047016.9,P
1504843135.1,286047017.3,N
1504843155.8,286047020.9,N
1504843175.7,286047024.9,N
1504843195.5,286047026.2,N
